West Palm Beach, FL

8:34 PM EDT on August 28, 2016 (GMT -0400)
Palm Beach International

Weather History for KPBI - February, 2013

Change the Weather History Date:

Monday, February 4, 2013

  Actual Average Record
Temperature  
Mean Temperature 61 °F 67 °F  
Max Temperature 75 °F 76 °F 87 °F (1990)
Min Temperature 46 °F 58 °F 33 °F (1917)
Degree Days  
Heating Degree Days 4 2  
Month to date heating degree days 11 8  
Since 1 July heating degree days 59 165  
Cooling Degree Days 0 4  
Month to date cooling degree days 0 15  
Year to date cooling degree days 221 123  
Growing Degree Days 10 (Base 50)    
Moisture  
Dew Point 45 °F    
Average Humidity 54    
Maximum Humidity 80    
Minimum Humidity 27    
Precipitation  
Precipitation 0.00 in 0.10 in 2.73 in (1964)
Month to date precipitation 0.00 0.40  
Year to date precipitation 0.79 3.53  
Snow  
Snow 0.00 in - - ()
Month to date snowfall 0.0  
Since 1 July snowfall 0.0  
Snow Depth 0.00 in    
Sea Level Pressure  
Sea Level Pressure 30.08 in    
Wind  
Wind Speed 5 mph (WSW)    
Max Wind Speed 15 mph    
Max Gust Speed 18 mph    
Visibility 10 miles    
Events      
T = Trace of Precipitation, MM = Missing Value Source: NWS Daily Summary

Daily Weather History Graph

Daily Weather History Graph

Search for Another Location

Airport or City:

Trip Planner

Search our weather history database for the weather conditions in past years. The results will help you decide how hot, cold, wet, or windy it might be!

Date:

Astronomy

Feb. 04, 2013 Rise Set
Actual Time 7:03 AM EST 6:05 PM EST
Civil Twilight 6:39 AM EST 6:29 PM EST
Nautical Twilight 6:12 AM EST 6:57 PM EST
Astronomical Twilight 5:44 AM EST 7:24 PM EST
Moon 1:31 AM EST (2/4) 12:35 PM EST (2/4)
Length of Visible Light 11h 49m
Length of Day
11h 01m
Last Quarter, 37% of the Moon is Illuminated
Feb 4
Last Quarter
Feb 10
New
Feb 17
First Quarter
Feb 25
Full
Mar 4
Last Quarter

Hourly Weather History & Observations

Time (EST) Temp. Dew Point Humidity Pressure Visibility Wind Dir Wind Speed Gust Speed Precip Events Conditions
12:53 AM 52.0 °F 44.1 °F 74% 30.09 in 10.0 mi WNW 5.8 mph - N/A   Partly Cloudy
1:53 AM 51.1 °F 45.0 °F 80% 30.09 in 10.0 mi NW 6.9 mph - N/A   Partly Cloudy
2:53 AM 52.0 °F 45.0 °F 77% 30.09 in 10.0 mi NNW 5.8 mph - N/A   Scattered Clouds
3:53 AM 50.0 °F 44.1 °F 80% 30.09 in 10.0 mi NNW 8.1 mph - N/A   Partly Cloudy
5:53 AM 48.9 °F 39.9 °F 71% 30.10 in 10.0 mi NW 5.8 mph - N/A   Scattered Clouds
6:53 AM 46.9 °F 39.0 °F 74% 30.11 in 10.0 mi NW 4.6 mph - N/A   Mostly Cloudy
7:53 AM 50.0 °F 43.0 °F 77% 30.12 in 10.0 mi NW 3.5 mph - N/A   Scattered Clouds
8:53 AM 55.0 °F 44.1 °F 67% 30.14 in 10.0 mi WNW 3.5 mph - N/A   Scattered Clouds
9:53 AM 64.0 °F 44.1 °F 48% 30.14 in 10.0 mi Calm Calm - N/A   Scattered Clouds
10:53 AM 69.1 °F 39.9 °F 35% 30.13 in 10.0 mi Variable 3.5 mph - N/A   Scattered Clouds
11:53 AM 71.1 °F 37.0 °F 29% 30.11 in 10.0 mi SSW 5.8 mph - N/A   Scattered Clouds
12:53 PM 71.6 °F 37.4 °F 29% 30.08 in 10.0 mi South 8.1 mph - N/A   Scattered Clouds
1:53 PM 73.4 °F 37.4 °F 27% 30.05 in 10.0 mi SSW 11.5 mph - N/A   Scattered Clouds
2:53 PM 73.4 °F 37.4 °F 27% 30.03 in 10.0 mi SW 8.1 mph - N/A   Scattered Clouds
3:53 PM 73.0 °F 46.0 °F 38% 30.03 in 10.0 mi SE 10.4 mph 17.3 mph N/A   Partly Cloudy
4:53 PM 71.1 °F 48.9 °F 45% 30.04 in 10.0 mi South 9.2 mph - N/A   Partly Cloudy
5:53 PM 69.1 °F 51.1 °F 53% 30.04 in 10.0 mi South 8.1 mph - N/A   Scattered Clouds
6:53 PM 68.0 °F 52.0 °F 56% 30.05 in 10.0 mi SE 4.6 mph - N/A   Partly Cloudy
7:53 PM 66.0 °F 52.0 °F 60% 30.06 in 10.0 mi South 3.5 mph - N/A   Partly Cloudy
8:53 PM 64.0 °F 52.0 °F 65% 30.07 in 10.0 mi Calm Calm - N/A   Partly Cloudy
9:53 PM 62.1 °F 52.0 °F 70% 30.07 in 10.0 mi Calm Calm - N/A   Clear
10:53 PM 59.0 °F 52.0 °F 78% 30.07 in 10.0 mi Calm Calm - N/A   Clear
11:53 PM 57.0 °F 52.0 °F 83% 30.07 in 10.0 mi Calm Calm - N/A   Partly Cloudy